When you browse on this site, cookies collect data to enhance your experience and personalize the content and advertising you see.
Visit our Privacy Policy to learn more. By continuing to use the site, you agree to this use of cookies and data.
  • Em Portugal
  • Lista de países
  • Para 7 dias
  • Temperatura da água
  • Mapas de satélite
  • Mapa do tempo
  • Widgets de tempo
  • user-avatar
    Iniciar Sessão

    Previsão horária em Tóquio

    Hoje, 22 Janeiro, Terça-feira

    Tempo Temperatura Precipitação Vento Pressão Humidade
    00:00 +7°C° 0 mm 1 m/s 755 mmHg 30%
    01:00 +6°C° 0 mm 1 m/s 755 mmHg 32%
    02:00 +6°C° 0 mm 1 m/s 755 mmHg 34%
    03:00 +6°C° 0 mm 1 m/s 755 mmHg 36%
    04:00 +6°C° 0 mm 1 m/s 755 mmHg 37%
    05:00 +5°C° 0 mm 1 m/s 755 mmHg 38%
    06:00 +4°C° 0 mm 2 m/s 755 mmHg 39%
    07:00 +5°C° 0 mm 2 m/s 755 mmHg 39%
    08:00 +5°C° 0 mm 2 m/s 756 mmHg 39%
    09:00 +4°C° 0 mm 4 m/s 756 mmHg 40%
    10:00 +5°C° 0 mm 4 m/s 756 mmHg 38%
    11:00 +6°C° 0 mm 4 m/s 756 mmHg 36%
    12:00 +8°C° 0 mm 4 m/s 756 mmHg 34%
    13:00 +8°C° 0 mm 4 m/s 756 mmHg 31%
    14:00 +8°C° 0 mm 4 m/s 756 mmHg 28%
    15:00 +10°C° 0 mm 3 m/s 756 mmHg 26%
    16:00 +9°C° 0 mm 3 m/s 757 mmHg 25%
    17:00 +9°C° 0 mm 3 m/s 757 mmHg 25%
    18:00 +9°C° 0 mm 3 m/s 758 mmHg 25%
    19:00 +8°C° 0 mm 3 m/s 758 mmHg 26%
    20:00 +8°C° 0 mm 3 m/s 758 mmHg 27%
    21:00 +7°C° 0 mm 3 m/s 759 mmHg 28%
    22:00 +7°C° 0 mm 3 m/s 759 mmHg 30%
    23:00 +5°C° 0 mm 3 m/s 759 mmHg 32%

    Amanhã, 23 Janeiro, Quarta-feira

    Tempo Temperatura Precipitação Vento Pressão Humidade
    00:00 +5°C° 0 mm 3 m/s 759 mmHg 34%
    01:00 +5°C° 0 mm 3 m/s 759 mmHg 35%
    02:00 +4°C° 0 mm 3 m/s 759 mmHg 36%
    03:00 +4°C° 0 mm 3 m/s 759 mmHg 36%
    04:00 +5°C° 0 mm 2 m/s 759 mmHg 37%
    05:00 +5°C° 0 mm 2 m/s 759 mmHg 37%
    06:00 +4°C° 0 mm 2 m/s 759 mmHg 38%
    07:00 +6°C° 0 mm 1 m/s 759 mmHg 38%
    08:00 +6°C° 0 mm 1 m/s 759 mmHg 37%
    09:00 +5°C° 0 mm 0 m/s 759 mmHg 37%
    10:00 +8°C° 0 mm 1 m/s 758 mmHg 39%
    11:00 +8°C° 0 mm 3 m/s 757 mmHg 41%
    12:00 +8°C° 0 mm 4 m/s 757 mmHg 42%
    13:00 +10°C° 0 mm 4 m/s 756 mmHg 39%
    14:00 +11°C° 0 mm 4 m/s 755 mmHg 36%
    15:00 +12°C° 0 mm 5 m/s 755 mmHg 33%
    16:00 +11°C° 0 mm 4 m/s 755 mmHg 34%
    17:00 +11°C° 0 mm 4 m/s 755 mmHg 35%
    18:00 +11°C° 0 mm 3 m/s 755 mmHg 36%
    19:00 +10°C° 0 mm 4 m/s 754 mmHg 36%
    20:00 +9°C° 0 mm 5 m/s 754 mmHg 35%
    21:00 +8°C° 0 mm 5 m/s 754 mmHg 34%
    22:00 +8°C° 0 mm 5 m/s 754 mmHg 36%
    23:00 +8°C° 0 mm 5 m/s 754 mmHg 38%

    Depois de amanhã, 24 Janeiro, Quinta-feira

    Tempo Temperatura Precipitação Vento Pressão Humidade
    00:00 +7°C° 0 mm 4 m/s 754 mmHg 40%
    01:00 +7°C° 0 mm 4 m/s 755 mmHg 41%
    02:00 +6°C° 0 mm 4 m/s 755 mmHg 43%
    03:00 +7°C° 0 mm 3 m/s 755 mmHg 44%
    04:00 +5°C° 0 mm 4 m/s 755 mmHg 44%
    05:00 +5°C° 0 mm 5 m/s 756 mmHg 43%
    06:00 +4°C° 0 mm 7 m/s 756 mmHg 42%
    07:00 +4°C° 0 mm 7 m/s 757 mmHg 39%
    08:00 +4°C° 0 mm 8 m/s 757 mmHg 36%
    09:00 +4°C° 0 mm 8 m/s 758 mmHg 32%
    10:00 +5°C° 0 mm 8 m/s 757 mmHg 29%
    11:00 +6°C° 0 mm 7 m/s 757 mmHg 25%
    12:00 +6°C° 0 mm 7 m/s 757 mmHg 21%
    13:00 +8°C° 0 mm 7 m/s 757 mmHg 21%
    14:00 +8°C° 0 mm 6 m/s 757 mmHg 20%
    15:00 +8°C° 0 mm 6 m/s 757 mmHg 19%
    16:00 +6°C° 0 mm 7 m/s 758 mmHg 22%
    17:00 +6°C° 0 mm 8 m/s 758 mmHg 24%
    18:00 +5°C° 0 mm 9 m/s 759 mmHg 27%
    19:00 +4°C° 0 mm 8 m/s 760 mmHg 28%
    20:00 +4°C° 0 mm 8 m/s 760 mmHg 28%
    21:00 +2°C° 0 mm 8 m/s 761 mmHg 29%
    22:00 +3°C° 0 mm 7 m/s 761 mmHg 29%
    23:00 +3°C° 0 mm 7 m/s 761 mmHg 30%

    25 Janeiro, Sexta-feira

    Tempo Temperatura Precipitação Vento Pressão Humidade
    00:00 +3°C° 0 mm 6 m/s 761 mmHg 30%
    01:00 +2°C° 0 mm 6 m/s 761 mmHg 31%
    02:00 +2°C° 0 mm 5 m/s 761 mmHg 31%
    03:00 +2°C° 0 mm 5 m/s 761 mmHg 32%
    04:00 +3°C° 0 mm 4 m/s 761 mmHg 32%
    05:00 +3°C° 0 mm 4 m/s 761 mmHg 33%
    06:00 +3°C° 0 mm 3 m/s 761 mmHg 33%
    07:00 +3°C° 0 mm 3 m/s 761 mmHg 33%
    08:00 +3°C° 0 mm 3 m/s 761 mmHg 33%
    09:00 +3°C° 0 mm 3 m/s 761 mmHg 32%
    10:00 +4°C° 0 mm 3 m/s 760 mmHg 30%
    11:00 +6°C° 0 mm 2 m/s 760 mmHg 28%
    12:00 +7°C° 0 mm 2 m/s 759 mmHg 25%
    13:00 +7°C° 0 mm 2 m/s 759 mmHg 25%
    14:00 +9°C° 0 mm 1 m/s 758 mmHg 25%
    15:00 +9°C° 0 mm 1 m/s 758 mmHg 25%
    16:00 +9°C° 0 mm 1 m/s 758 mmHg 27%
    17:00 +9°C° 0 mm 1 m/s 758 mmHg 28%
    18:00 +9°C° 0 mm 1 m/s 758 mmHg 30%
    19:00 +8°C° 0 mm 1 m/s 758 mmHg 32%
    20:00 +8°C° 0 mm 1 m/s 758 mmHg 35%
    21:00 +7°C° 0 mm 0 m/s 758 mmHg 37%
    22:00 +7°C° 0 mm 1 m/s 758 mmHg 36%
    23:00 +7°C° 0 mm 1 m/s 757 mmHg 36%

    26 Janeiro, Sábado

    Tempo Temperatura Precipitação Vento Pressão Humidade
    00:00 +6°C° 0 mm 2 m/s 757 mmHg 36%
    01:00 +5°C° 0 mm 2 m/s 756 mmHg 35%
    02:00 +4°C° 0 mm 3 m/s 756 mmHg 33%
    03:00 +4°C° 0 mm 3 m/s 755 mmHg 32%
    04:00 +4°C° 0 mm 4 m/s 755 mmHg 36%
    05:00 +2°C° 0 mm 5 m/s 755 mmHg 40%
    06:00 +2°C° 0 mm 5 m/s 754 mmHg 43%
    07:00 +2°C° 0.1 mm 5 m/s 754 mmHg 49%
    08:00 +2°C° 0.1 mm 5 m/s 754 mmHg 55%
    09:00 +2°C° 0.1 mm 5 m/s 754 mmHg 61%
    10:00 +2°C° 0.2 mm 5 m/s 754 mmHg 61%
    11:00 +2°C° 0.2 mm 5 m/s 753 mmHg 61%
    12:00 +2°C° 0.2 mm 5 m/s 752 mmHg 61%
    13:00 +3°C° 0 mm 5 m/s 752 mmHg 60%
    14:00 +3°C° 0 mm 5 m/s 752 mmHg 58%
    15:00 +3°C° 0 mm 5 m/s 752 mmHg 56%
    16:00 +3°C° 0 mm 5 m/s 752 mmHg 52%
    17:00 +3°C° 0 mm 5 m/s 753 mmHg 47%
    18:00 +3°C° 0 mm 6 m/s 754 mmHg 43%
    19:00 +3°C° 0 mm 6 m/s 754 mmHg 40%
    20:00 +3°C° 0 mm 7 m/s 755 mmHg 38%
    21:00 +2°C° 0 mm 7 m/s 755 mmHg 36%
    22:00 +2°C° 0 mm 7 m/s 756 mmHg 36%
    23:00 +2°C° 0 mm 7 m/s 756 mmHg 37%

    27 Janeiro, Domingo

    Tempo Temperatura Precipitação Vento Pressão Humidade
    00:00 0°C° 0 mm 7 m/s 756 mmHg 38%
    01:00 +1°C° 0 mm 6 m/s 756 mmHg 38%
    02:00 +1°C° 0 mm 6 m/s 757 mmHg 39%
    03:00 +1°C° 0 mm 5 m/s 757 mmHg 40%
    04:00 +1°C° 0 mm 5 m/s 758 mmHg 41%
    05:00 0°C° 0 mm 4 m/s 758 mmHg 42%
    06:00 0°C° 0 mm 4 m/s 759 mmHg 43%
    07:00 +1°C° 0 mm 4 m/s 759 mmHg 41%
    08:00 +3°C° 0 mm 4 m/s 760 mmHg 39%
    09:00 +2°C° 0 mm 5 m/s 760 mmHg 37%
    10:00 +3°C° 0 mm 5 m/s 760 mmHg 33%
    11:00 +4°C° 0 mm 6 m/s 760 mmHg 29%
    12:00 +5°C° 0 mm 7 m/s 760 mmHg 25%
    13:00 +6°C° 0 mm 7 m/s 760 mmHg 25%
    14:00 +6°C° 0 mm 7 m/s 760 mmHg 24%
    15:00 +6°C° 0 mm 7 m/s 760 mmHg 23%
    16:00 +6°C° 0 mm 7 m/s 760 mmHg 24%
    17:00 +5°C° 0 mm 7 m/s 761 mmHg 26%
    18:00 +5°C° 0 mm 7 m/s 762 mmHg 27%
    19:00 +4°C° 0 mm 6 m/s 762 mmHg 29%
    20:00 +5°C° 0 mm 5 m/s 762 mmHg 30%
    21:00 +4°C° 0 mm 4 m/s 763 mmHg 32%
    22:00 +4°C° 0 mm 3 m/s 763 mmHg 33%
    23:00 +5°C° 0 mm 2 m/s 763 mmHg 35%
    Mostrar mais